When you browse on this site, cookies collect data to enhance your experience and personalize the content and advertising you see.
Visit our Privacy Policy to learn more. By continuing to use the site, you agree to this use of cookies and data.
  • In Deutschland
  • Länderverzeichnis
  • Für 7 Tage
  • Wassertemperatur
  • Wetterkarte
  • Widgets
  • user-avatar
    Anmelden

    Stündliche Wetter Bremen

    Heute, 15 Oktober, Dienstag

    Zeit Temperatur Niederschläge Wind Luftdruck Luftfeuchtigkeit
    00:00 +16°C° 0 mm 3 m/S 755 mmHg 94%
    01:00 +14°C° 0 mm 3 m/S 755 mmHg 93%
    02:00 +14°C° 0 mm 3 m/S 754 mmHg 93%
    03:00 +14°C° 0 mm 3 m/S 754 mmHg 93%
    04:00 +14°C° 0 mm 3 m/S 753 mmHg 92%
    05:00 +13°C° 0 mm 3 m/S 753 mmHg 92%
    06:00 +14°C° 0 mm 2 m/S 753 mmHg 92%
    07:00 +14°C° 0 mm 2 m/S 753 mmHg 92%
    08:00 +15°C° 0 mm 2 m/S 753 mmHg 89%
    09:00 +17°C° 0 mm 2 m/S 753 mmHg 87%
    10:00 +18°C° 0 mm 2 m/S 753 mmHg 84%
    11:00 +19°C° 0 mm 2 m/S 753 mmHg 80%
    12:00 +20°C° 0 mm 2 m/S 753 mmHg 76%
    13:00 +21°C° 0 mm 2 m/S 753 mmHg 72%
    14:00 +21°C° 0 mm 2 m/S 753 mmHg 75%
    15:00 +20°C° 0 mm 2 m/S 753 mmHg 77%
    16:00 +20°C° 0 mm 2 m/S 752 mmHg 79%
    17:00 +19°C° 0 mm 2 m/S 752 mmHg 83%
    18:00 +17°C° 0 mm 2 m/S 753 mmHg 88%
    19:00 +16°C° 0 mm 2 m/S 753 mmHg 92%
    20:00 +15°C° 0.2 mm 2 m/S 753 mmHg 93%
    21:00 +15°C° 0.2 mm 2 m/S 753 mmHg 95%
    22:00 +15°C° 0.2 mm 2 m/S 753 mmHg 96%
    23:00 +14°C° 4.8 mm 4 m/S 753 mmHg 96%

    Morgen, 16 Oktober, Mittwoch

    Zeit Temperatur Niederschläge Wind Luftdruck Luftfeuchtigkeit
    00:00 +13°C° 4.8 mm 5 m/S 753 mmHg 96%
    01:00 +13°C° 4.8 mm 6 m/S 753 mmHg 96%
    02:00 +13°C° 5.6 mm 6 m/S 753 mmHg 96%
    03:00 +13°C° 5.6 mm 6 m/S 753 mmHg 95%
    04:00 +11°C° 5.6 mm 6 m/S 753 mmHg 95%
    05:00 +11°C° 2.4 mm 6 m/S 753 mmHg 95%
    06:00 +10°C° 2.4 mm 6 m/S 753 mmHg 94%
    07:00 +10°C° 2.4 mm 5 m/S 753 mmHg 94%
    08:00 +10°C° 0.5 mm 5 m/S 754 mmHg 94%
    09:00 +10°C° 0.5 mm 5 m/S 754 mmHg 93%
    10:00 +10°C° 0.5 mm 6 m/S 754 mmHg 93%
    11:00 +11°C° 0 mm 6 m/S 754 mmHg 91%
    12:00 +11°C° 0 mm 6 m/S 754 mmHg 88%
    13:00 +13°C° 0 mm 6 m/S 754 mmHg 86%
    14:00 +13°C° 0 mm 5 m/S 754 mmHg 85%
    15:00 +14°C° 0 mm 5 m/S 755 mmHg 84%
    16:00 +14°C° 0 mm 4 m/S 755 mmHg 83%
    17:00 +14°C° 0 mm 4 m/S 755 mmHg 84%
    18:00 +13°C° 0 mm 4 m/S 755 mmHg 85%
    19:00 +13°C° 0 mm 4 m/S 755 mmHg 86%
    20:00 +13°C° 0 mm 4 m/S 756 mmHg 86%
    21:00 +13°C° 0 mm 4 m/S 756 mmHg 87%
    22:00 +13°C° 0 mm 5 m/S 756 mmHg 87%
    23:00 +13°C° 0 mm 4 m/S 756 mmHg 87%

    übermorgen, 17 Oktober, Donnerstag

    Zeit Temperatur Niederschläge Wind Luftdruck Luftfeuchtigkeit
    00:00 +13°C° 0 mm 4 m/S 756 mmHg 88%
    01:00 +13°C° 0 mm 4 m/S 756 mmHg 88%
    02:00 +13°C° 0.1 mm 4 m/S 756 mmHg 87%
    03:00 +13°C° 0.1 mm 4 m/S 755 mmHg 87%
    04:00 +13°C° 0.1 mm 4 m/S 755 mmHg 87%
    05:00 +13°C° 0.3 mm 5 m/S 755 mmHg 89%
    06:00 +13°C° 0.3 mm 5 m/S 755 mmHg 90%
    07:00 +13°C° 0.3 mm 5 m/S 755 mmHg 92%
    08:00 +13°C° 0 mm 5 m/S 756 mmHg 91%
    09:00 +13°C° 0 mm 5 m/S 756 mmHg 91%
    10:00 +13°C° 0 mm 5 m/S 756 mmHg 90%
    11:00 +13°C° 0.1 mm 4 m/S 757 mmHg 90%
    12:00 +13°C° 0.1 mm 4 m/S 757 mmHg 90%
    13:00 +13°C° 0.1 mm 3 m/S 757 mmHg 91%
    14:00 +13°C° 0 mm 3 m/S 758 mmHg 89%
    15:00 +13°C° 0 mm 3 m/S 758 mmHg 87%
    16:00 +14°C° 0 mm 3 m/S 758 mmHg 85%
    17:00 +13°C° 0.1 mm 3 m/S 758 mmHg 86%
    18:00 +12°C° 0.1 mm 3 m/S 759 mmHg 87%
    19:00 +11°C° 0.1 mm 3 m/S 759 mmHg 88%
    20:00 +11°C° 0 mm 3 m/S 759 mmHg 87%
    21:00 +10°C° 0 mm 3 m/S 759 mmHg 85%
    22:00 +10°C° 0 mm 3 m/S 760 mmHg 84%
    23:00 +9°C° 0 mm 3 m/S 760 mmHg 86%

    18 Oktober, Freitag

    Zeit Temperatur Niederschläge Wind Luftdruck Luftfeuchtigkeit
    00:00 +9°C° 0 mm 3 m/S 759 mmHg 87%
    01:00 +8°C° 0 mm 3 m/S 759 mmHg 89%
    02:00 +8°C° 0 mm 3 m/S 759 mmHg 89%
    03:00 +8°C° 0 mm 3 m/S 759 mmHg 90%
    04:00 +8°C° 0 mm 3 m/S 759 mmHg 91%
    05:00 +8°C° 0 mm 3 m/S 759 mmHg 90%
    06:00 +7°C° 0 mm 4 m/S 759 mmHg 89%
    07:00 +8°C° 0 mm 4 m/S 758 mmHg 88%
    08:00 +10°C° 0.1 mm 4 m/S 758 mmHg 89%
    09:00 +11°C° 0.1 mm 4 m/S 758 mmHg 90%
    10:00 +12°C° 0.1 mm 5 m/S 758 mmHg 90%
    11:00 +13°C° 0.3 mm 5 m/S 758 mmHg 88%
    12:00 +14°C° 0.3 mm 5 m/S 757 mmHg 85%
    13:00 +14°C° 0.3 mm 5 m/S 757 mmHg 82%
    14:00 +14°C° 0 mm 5 m/S 757 mmHg 81%
    15:00 +14°C° 0 mm 4 m/S 757 mmHg 80%
    16:00 +14°C° 0 mm 4 m/S 757 mmHg 78%
    17:00 +13°C° 0 mm 3 m/S 758 mmHg 81%
    18:00 +11°C° 0 mm 3 m/S 758 mmHg 83%
    19:00 +10°C° 0 mm 3 m/S 758 mmHg 86%
    20:00 +10°C° 0 mm 3 m/S 759 mmHg 87%
    21:00 +9°C° 0 mm 3 m/S 759 mmHg 88%
    22:00 +9°C° 0 mm 3 m/S 759 mmHg 89%
    23:00 +9°C° 0 mm 3 m/S 759 mmHg 89%

    19 Oktober, Samstag

    Zeit Temperatur Niederschläge Wind Luftdruck Luftfeuchtigkeit
    00:00 +9°C° 0 mm 3 m/S 759 mmHg 89%
    01:00 +9°C° 0 mm 3 m/S 758 mmHg 89%
    02:00 +9°C° 0 mm 3 m/S 758 mmHg 90%
    03:00 +9°C° 0 mm 3 m/S 758 mmHg 91%
    04:00 +9°C° 0 mm 3 m/S 758 mmHg 91%
    05:00 +8°C° 0 mm 3 m/S 758 mmHg 91%
    06:00 +8°C° 0 mm 3 m/S 758 mmHg 91%
    07:00 +7°C° 0 mm 4 m/S 758 mmHg 92%
    08:00 +10°C° 0 mm 4 m/S 758 mmHg 88%
    09:00 +11°C° 0 mm 4 m/S 758 mmHg 84%
    10:00 +12°C° 0 mm 4 m/S 757 mmHg 81%
    11:00 +13°C° 0 mm 4 m/S 757 mmHg 79%
    12:00 +14°C° 0 mm 5 m/S 757 mmHg 76%
    13:00 +15°C° 0 mm 5 m/S 757 mmHg 74%
    14:00 +15°C° 0 mm 4 m/S 757 mmHg 76%
    15:00 +14°C° 0 mm 3 m/S 756 mmHg 79%
    16:00 +14°C° 0 mm 3 m/S 756 mmHg 81%
    17:00 +13°C° 0 mm 3 m/S 756 mmHg 83%
    18:00 +13°C° 0 mm 3 m/S 755 mmHg 85%
    19:00 +12°C° 0 mm 3 m/S 755 mmHg 87%
    20:00 +12°C° 0 mm 3 m/S 755 mmHg 87%
    21:00 +12°C° 0 mm 3 m/S 754 mmHg 87%
    22:00 +11°C° 0 mm 3 m/S 754 mmHg 87%
    23:00 +12°C° 0.4 mm 3 m/S 753 mmHg 88%

    20 Oktober, Sonntag

    Zeit Temperatur Niederschläge Wind Luftdruck Luftfeuchtigkeit
    00:00 +12°C° 0.4 mm 4 m/S 752 mmHg 90%
    01:00 +12°C° 0.4 mm 4 m/S 752 mmHg 92%
    02:00 +12°C° 0.7 mm 4 m/S 751 mmHg 92%
    03:00 +12°C° 0.7 mm 4 m/S 751 mmHg 92%
    04:00 +13°C° 0.7 mm 4 m/S 750 mmHg 92%
    05:00 +12°C° 0.4 mm 4 m/S 751 mmHg 93%
    06:00 +11°C° 0.4 mm 3 m/S 751 mmHg 94%
    07:00 +12°C° 0.4 mm 2 m/S 751 mmHg 95%
    08:00 +11°C° 0 mm 4 m/S 751 mmHg 93%
    09:00 +12°C° 0 mm 5 m/S 751 mmHg 90%
    10:00 +13°C° 0 mm 6 m/S 752 mmHg 87%
    11:00 +13°C° 0.1 mm 6 m/S 752 mmHg 84%
    12:00 +13°C° 0.1 mm 6 m/S 752 mmHg 81%
    13:00 +14°C° 0.1 mm 7 m/S 752 mmHg 77%
    14:00 +13°C° 0.1 mm 6 m/S 752 mmHg 79%
    15:00 +13°C° 0.1 mm 5 m/S 753 mmHg 80%
    16:00 +13°C° 0.1 mm 4 m/S 753 mmHg 81%
    17:00 +11°C° 0 mm 3 m/S 753 mmHg 84%
    18:00 +10°C° 0 mm 3 m/S 754 mmHg 86%
    19:00 +9°C° 0 mm 3 m/S 754 mmHg 89%
    20:00 +9°C° 0 mm 3 m/S 755 mmHg 89%
    21:00 +9°C° 0 mm 3 m/S 755 mmHg 89%
    22:00 +8°C° 0 mm 3 m/S 756 mmHg 89%
    23:00 +8°C° 0 mm 3 m/S 756 mmHg 90%
    Mehr zeigen